Regional Weather Roundup
Issued by NWS

Home | Current Version | Previous Version | Graphics & Text | Print | Product List | Glossary On
Versions: 1 2 3 4 5 6 7 8 9 10 11 12 13 14 15 16 17 18 19 20 21 22 23 24 25 26 27 28 29 30 31 32 33 34 35 36 37 38 39 40 41 42 43 44 45 46 47 48 49 50
000
ASUS43 KLOT 231706
RWRIL

ILLINOIS REGIONAL WEATHER ROUNDUP
NATIONAL WEATHER SERVICE CHICAGO/ROMEOVILLE IL
1200 PM CDT SAT AUG 23 2014

NOTE: "FAIR" INDICATES FEW OR NO CLOUDS BELOW 12,000 FEET WITH NO
SIGNIFICANT WEATHER AND/OR OBSTRUCTIONS TO VISIBILITY.

* THESE STATIONS ARE NOT UNDER NWS QUALITY CONTROL. THEY ALSO MAY NOT
  REPORT WEATHER SUCH AS PRECIPITATION OR FOG.

ILZ001-002-007-009-015-016-024-231800-
NORTHWEST ILLINOIS

CITY           SKY/WX    TMP DP  RH WIND       PRES   REMARKS
MOLINE         CLOUDY    72  69  90 E9        29.98R
STERLING*      CLOUDY    70  68  94 E5        30.01F
SAVANNA*       TSTM      72  69  91 N7        29.99F
$$

ILZ003-004-008-010-011-017-018-231800-
NORTH CENTRAL ILLINOIS

CITY           SKY/WX    TMP DP  RH WIND       PRES   REMARKS
ROCKFORD       CLOUDY    78  75  90 SE7       30.02S THUNDER HX  81
FREEPORT*      CLOUDY    74  72  93 W21G29    30.07R
ROCHELLE*      CLOUDY    78  74  89 CALM      30.04R HX  80
DE KALB*       CLOUDY    77  74  88 S3        30.03S
PERU*          TSTM      72  69  90 NW16      30.03R
$$

ILZ005-006-012>014-019>023-231800-
NORTHEAST ILLINOIS

CITY           SKY/WX    TMP DP  RH WIND       PRES   REMARKS
CHICAGO-OHARE  CLOUDY    84  73  69 CALM      30.00S HX  90
CHICAGO-MIDWAY CLOUDY    86  73  65 CALM      29.99F HX  93
AURORA         CLOUDY    82  73  74 S5        30.01S HX  87
LANSING*       PTSUNNY   85  73  67 CALM      30.00F HX  91
JOLIET*        PTSUNNY   82  72  69 SE3       30.01S HX  87
WAUKEGAN       CLOUDY    80  71  74 E6        30.01S HX  84
DUPAGE AIRPORT CLOUDY    83  74  74 SW5       30.01S HX  89
KANKAKEE*      PTSUNNY   85  75  73 SE3       30.01S HX  93
WHEELING       CLOUDY    84  74  71 NE6       30.02S HX  91
MORRIS*        CLOUDY    83  75  78 SE3       30.00F HX  90
ROMEOVILLE*    CLOUDY    82  73  75 CALM      30.01S HX  88
NORTHERLY ISL    N/A     75  72  90 NE6         N/A
$$

LMZ740>746-231800-
SOUTHERN LAKE MICHIGAN

STATION/POSITION SKY/WX   TEMP    WIND        PRES    VSBY  WAVE
                          AIR SEA DIR/SP/G                  HT/PER
                          (F)     (DEG/KT/KT) (MB)    (MI)  (FT/S)
SOUTHERN BUOY              69 69  110/  8/ 10 1016.9R         1
WAUKEGAN HARBOR            72      50/  7/  7   N/A
HARRISON CRIB              72      30/  8/  9   N/A
BURNHAM HARBOR             75      10/  7/  7   N/A
CALUMET HARBOR             77      10/  7/  8 1015.1R
BURNS HARBOR               76      40/  5/  6   N/A
MICHIGAN CITY              74     360/  9/ 10   N/A
MICHIGAN CITY 6N           74 73   30/  8/ 10   N/A           0
ST. JOSEPH                 76 73  110/  4/  6   N/A           1
$$

ILZ025>027-034>036-040-047-049-050-058-095>099-231800-
WEST-CENTRAL ILLINOIS

CITY           SKY/WX    TMP DP  RH WIND       PRES   REMARKS
QUINCY         PTSUNNY   84  70  62 E8        29.96F HX  88
GALESBURG*     CLOUDY    71  69  96 E5        29.99F
MACOMB*        CLOUDY    78  73  82 NE5       30.00R HX  81
JACKSONVILLE*  PTSUNNY   88  79  74 NW9       29.98S HX 103
PITTSFIELD*    MOSUNNY   87  74  65 N8        29.98S HX  96
$$

ILZ028>032-037-038-041>044-048-051>054-059>061-231800-
CENTRAL ILLINOIS

CITY           SKY/WX    TMP DP  RH WIND       PRES   REMARKS
PONTIAC        CLOUDY    84  79  84 SE3       29.99F HX  96
DECATUR        PTSUNNY   87  78  74 E5        29.98F HX 100
PEORIA         TSTM      73  69  87 SE8       29.99F FOG
LACON*         TSTM      69  67  94 SE6       30.00F
LINCOLN*       CLOUDY    89  78  70 CALM      29.95R HX 103
SPRINGFIELD    PTSUNNY   89  79  72 VRB3      29.97R HX 104
TAYLORVILLE    MOSUNNY   86  79  79 CALM      29.97S HX  99
$$

ILZ033-039-045-046-055>057-062-063-231800-
EAST-CENTRAL ILLINOIS

CITY           SKY/WX    TMP DP  RH WIND       PRES   REMARKS
CHAMPAIGN      PTSUNNY   84  78  82 CALM      30.00S HX  95
DANVILLE*      RAIN      83  77  82 E3        29.97S HX  91
RANTOUL*       PTSUNNY   86  74  68 SE6       30.00F HX  94
MATTOON        PTSUNNY   86  77  74 CALM      29.98S HX  97
PARIS*         PTSUNNY   84  80  87 CALM      30.00S HX  98
$$

ILZ079-100>102-231800-
SOUTHWEST ILLINOIS

CITY           SKY/WX    TMP DP  RH WIND       PRES   REMARKS
ALTON          SUNNY     90  79  70 W10       29.96F HX 105
BELLEVILLE     SUNNY     93  76  57 W6        29.96S HX 106
CAHOKIA*       SUNNY     95  72  47 W7        29.95F HX 103
SPARTA*        SUNNY     90  76  64 W5        29.98F HX 101
$$

ILZ064>066-069>071-074>076-080>082-084>086-088>090-092>094-231800-
SOUTH-CENTRAL ILLINOIS

CITY           SKY/WX    TMP DP  RH WIND       PRES   REMARKS
CARBONDALE     SUNNY     90  77  65 W6        29.97F HX 103
CAIRO*         SUNNY     92  78  63 W3        29.98F HX 107
MARION         SUNNY     90  77  66 NW12      29.99F HX 102
MT. VERNON     MOSUNNY   86  75  70 W5        29.97F HX  95
CENTRALIA*     MOSUNNY   93  75  56 W10       29.97S HX 104
SALEM*         MOSUNNY   89  79  72 NW7       29.97S HX 105
METROPOLIS*    PTSUNNY   84  75  73 CALM      29.98F HX  92
$$

ILZ067-068-072-073-078-083-087-091-231800-
SOUTHEAST ILLINOIS

CITY           SKY/WX    TMP DP  RH WIND       PRES   REMARKS
LAWRENCEVILLE  CLOUDY    88  79  74 NE3       29.98R HX 103
FLORA*         MOSUNNY   89  79  71 CALM      29.97S HX 103
FAIRFIELD*     MOSUNNY   90  81  74 W7        29.95F HX 108
HARRISBURG*    PTSUNNY   86  80  82 SW5       29.99S HX 101
ROBINSON*      PTSUNNY   87  80  79 E5        29.98S HX 103
CARMI*         MOSUNNY   90  81  74 CALM      29.96F HX 108
$$

ABBREVIATIONS USED IN REMARKS
   TC - TEMPERATURE IN CELSIUS
  WCI - WIND CHILL INDEX
   HX - HEAT INDEX
  VSB - VISIBILITY
$$




USA.gov is the U.S. government's official web portal to all federal, state and local government web resources and services.